This is the latest recevied weather packets stored in our database for station/object WE1C. If no packets are shown the sender has not sent any weather packets the latest 1 day(s).
| Time | Temp. | Humidity | Pressure | Rain* | Wind** | Luminosity | Snow |
|---|---|---|---|---|---|---|---|
| 1777974519 | 12.78° C | 69% | 1038.3 hPa | 0 mm | 0.45 m/s, 196° | 10 W/m² | - |
| 1777974217 | 12.78° C | 68% | 1038.8 hPa | 0 mm | 0 m/s | 5 W/m² | - |
| 1777973912 | 12.78° C | 68% | 1038.3 hPa | 0 mm | 0.45 m/s, 204° | 2 W/m² | - |
| 1777973610 | 12.78° C | 68% | 1038.4 hPa | 0 mm | 0 m/s | 0 W/m² | - |
| 1777973307 | 12.78° C | 67% | 1038.7 hPa | 0 mm | 0 m/s | 0 W/m² | - |
| 1777973005 | 12.78° C | 67% | 1038.4 hPa | 0 mm | 0.45 m/s, 192° | 0 W/m² | - |
| 1777972702 | 13.33° C | 67% | 1038.4 hPa | 0 mm | 0.45 m/s, 189° | 0 W/m² | - |
| 1777972400 | 12.78° C | 67% | 1038.5 hPa | 0 mm | 0.45 m/s, 191° | 0 W/m² | - |
| 1777972098 | 13.33° C | 67% | 1038.5 hPa | 0 mm | 0 m/s | 0 W/m² | - |
| 1777971796 | 13.33° C | 66% | 1038.4 hPa | 0 mm | 0.45 m/s, 166° | 0 W/m² | - |
| 1777971493 | 12.78° C | 66% | 1038.4 hPa | 0 mm | 0.89 m/s, 195° | 0 W/m² | - |
| 1777971190 | 12.78° C | 66% | 1038.9 hPa | 0 mm | 0.45 m/s, 212° | 0 W/m² | - |
| 1777970888 | 12.78° C | 66% | 1038.7 hPa | 0 mm | 0.45 m/s, 149° | 0 W/m² | - |
| 1777970586 | 12.78° C | 66% | 1038.8 hPa | 0 mm | 0 m/s | 0 W/m² | - |
| 1777970283 | 12.78° C | 65% | 1038.9 hPa | 0 mm | 0.45 m/s, 193° | 0 W/m² | - |
| 1777969980 | 12.78° C | 65% | 1038.8 hPa | 0 mm | 0.89 m/s, 146° | 0 W/m² | - |
| 1777969676 | 12.78° C | 65% | 1039 hPa | 0 mm | 0.45 m/s, 35° | 0 W/m² | - |
| 1777969373 | 12.78° C | 64% | 1039.1 hPa | 0 mm | 0 m/s | 0 W/m² | - |
| 1777969069 | 12.78° C | 64% | 1038.8 hPa | 0 mm | 0 m/s | 0 W/m² | - |
| 1777968767 | 12.78° C | 64% | 1039 hPa | 0 mm | 0 m/s | 0 W/m² | - |
| 1777968463 | 12.78° C | 64% | 1038.8 hPa | 0 mm | 0.89 m/s, 206° | 0 W/m² | - |
| 1777968159 | 12.78° C | 64% | 1038.8 hPa | 0 mm | 0.45 m/s, 174° | 0 W/m² | - |
| 1777967855 | 12.22° C | 64% | 1039 hPa | 0 mm | 0.45 m/s, 185° | 0 W/m² | - |
| 1777967552 | 12.22° C | 65% | 1038.8 hPa | 0 mm | 0.45 m/s, 179° | 0 W/m² | - |
| 1777967249 | 12.78° C | 65% | 1039 hPa | 0 mm | 0.45 m/s, 97° | 0 W/m² | - |
* Rain latest hour (hover to see other rain measurements)
** Current wind speed in m/s (hover to see current wind gust speed)